�N����,����,�~����,�C��,���x,�C��,����,���ϕ���,�ő�u�ԕ���,�ő厞����,���˗�,�I�_���x,�n�����x,�ő啗���N��,DTYPE
"21/08/14","00:10",0.0,23.9,96.4,1001.2,163.7,0.7,1.7,222.8,0.00,23.3,24.9,"00:02:08",1
"21/08/14","00:20",0.0,23.9,96.4,1001.2,327.4,0.7,1.6,342.5,0.00,23.3,25.0,"00:13:12",1
"21/08/14","00:30",0.0,23.9,96.4,1001.5,293.8,0.6,1.1,249.2,0.00,23.3,24.9,"00:24:16",1
"21/08/14","00:40",0.0,23.8,96.4,1001.2,242.6,0.6,1.3,343.5,0.00,23.2,24.9,"00:38:56",1
"21/08/14","00:50",0.0,23.9,96.5,1001.2,193.7,0.3,1.0,344.2,0.00,23.3,24.7,"00:40:08",1
"21/08/14","01:00",0.2,23.9,96.4,1001.5,327.2,0.5,1.1,2.9,0.00,23.3,24.7,"00:59:44",1
"21/08/14","01:10",0.2,23.9,96.4,1001.0,8.0,0.6,1.4,11.6,0.00,23.3,24.9,"01:06:04",1
"21/08/14","01:20",0.2,23.9,96.4,1001.0,5.3,0.3,1.1,302.5,0.00,23.3,24.8,"01:17:28",1
"21/08/14","01:30",0.0,23.9,96.5,1000.8,306.6,0.3,1.0,325.7,0.00,23.3,24.7,"01:20:24",1
"21/08/14","01:40",0.0,23.9,96.5,1000.8,272.8,0.5,0.8,350.3,0.00,23.3,24.8,"01:30:08",1
"21/08/14","01:50",0.0,23.9,96.5,1000.8,349.8,0.6,1.2,16.1,0.00,23.3,24.9,"01:40:02",1
"21/08/14","02:00",0.2,23.9,96.5,1000.5,26.4,0.6,1.6,22.6,0.00,23.3,24.8,"01:50:08",1
"21/08/14","02:10",0.4,23.9,96.5,1000.3,220.8,0.3,0.8,239.4,0.00,23.3,25.0,"02:07:44",1
"21/08/14","02:20",1.2,24.0,96.6,1000.0,189.2,1.1,2.1,192.7,0.00,23.5,25.1,"02:14:24",1
"21/08/14","02:30",2.8,24.0,96.5,1000.0,288.8,0.7,1.7,263.2,0.00,23.4,24.7,"02:28:10",1
"21/08/14","02:40",1.0,24.0,96.5,1000.0,0.2,1.1,1.8,5.3,0.00,23.4,24.8,"02:30:32",1
"21/08/14","02:50",1.2,24.2,96.5,1000.0,46.4,0.6,1.9,20.9,0.00,23.6,24.8,"02:43:12",1
"21/08/14","03:00",0.8,24.2,96.5,1000.3,124.1,0.5,1.3,118.9,0.00,23.6,24.8,"02:59:52",1
"21/08/14","03:10",0.2,24.3,96.5,1000.3,352.7,1.0,2.9,40.1,0.00,23.7,24.8,"03:05:46",1
"21/08/14","03:20",0.4,24.0,96.6,999.8,157.7,1.1,2.7,188.0,0.00,23.5,24.8,"03:11:20",1
"21/08/14","03:30",0.4,24.1,96.6,999.6,172.6,1.3,4.9,208.9,0.00,23.6,24.9,"03:27:12",1
"21/08/14","03:40",0.0,24.2,96.6,999.8,150.8,1.1,2.0,161.3,0.00,23.7,24.8,"03:30:48",1
"21/08/14","03:50",0.2,24.3,96.5,999.6,130.1,0.5,1.4,124.6,0.00,23.7,24.8,"03:40:16",1
"21/08/14","04:00",0.4,24.3,96.5,999.8,190.2,0.3,0.9,145.7,0.00,23.7,24.8,"03:50:40",1
"21/08/14","04:10",0.6,24.2,96.5,999.3,167.6,0.5,1.0,128.5,0.00,23.6,24.8,"04:08:32",1
"21/08/14","04:20",1.0,24.2,96.6,999.1,135.9,0.6,1.6,182.2,0.00,23.7,24.7,"04:10:08",1
"21/08/14","04:30",1.0,24.1,96.6,999.6,129.4,1.0,2.2,126.9,0.00,23.6,24.7,"04:22:48",1
"21/08/14","04:40",0.6,24.0,96.7,999.6,154.8,0.8,1.8,191.1,0.00,23.5,24.8,"04:32:16",1
"21/08/14","04:50",0.2,24.0,96.6,999.3,148.1,1.1,3.2,198.6,0.00,23.5,24.7,"04:42:08",1
"21/08/14","05:00",1.2,24.0,96.7,999.8,226.5,0.6,2.0,193.2,0.00,23.5,24.7,"04:50:40",1
"21/08/14","05:10",0.6,24.0,96.7,999.3,34.4,0.6,1.3,24.9,0.00,23.5,24.7,"05:07:20",1
"21/08/14","05:20",0.6,24.0,96.7,999.3,127.9,0.8,3.5,144.1,0.00,23.5,24.8,"05:19:20",1
"21/08/14","05:30",0.0,23.9,96.7,999.6,160.5,0.7,2.6,167.8,0.00,23.4,24.8,"05:20:56",1
"21/08/14","05:40",0.0,24.0,96.7,999.3,149.4,0.8,1.8,141.1,0.00,23.5,24.5,"05:31:20",1
"21/08/14","05:50",0.2,24.0,96.7,999.8,129.5,0.6,2.1,114.0,0.00,23.5,24.9,"05:44:24",1
"21/08/14","06:00",0.2,24.0,96.7,999.6,164.2,0.6,1.3,209.7,0.00,23.5,24.8,"05:52:56",1
"21/08/14","06:10",0.8,24.2,96.7,999.3,170.1,0.7,2.6,123.7,0.00,23.7,25.1,"06:07:36",1
"21/08/14","06:20",1.4,24.3,96.7,999.3,4.5,0.5,1.6,25.8,0.00,23.8,24.9,"06:13:52",1
"21/08/14","06:30",6.0,24.2,96.7,999.8,12.3,0.8,2.0,6.6,0.00,23.7,24.8,"06:25:20",1
"21/08/14","06:40",1.6,24.2,96.7,999.8,96.3,0.8,1.8,122.7,0.00,23.7,24.8,"06:32:16",1
"21/08/14","06:50",1.0,24.2,96.7,999.8,101.0,0.6,1.1,103.9,0.00,23.7,24.9,"06:43:20",1
"21/08/14","07:00",0.2,24.2,96.8,999.6,138.3,0.5,1.3,114.2,0.00,23.7,24.8,"06:51:28",1
"21/08/14","07:10",0.0,24.4,96.8,999.6,16.6,0.7,1.7,343.3,0.01,23.9,24.8,"07:09:12",1
"21/08/14","07:20",0.0,24.5,96.8,999.6,3.3,0.8,1.9,15.7,0.01,24.0,24.9,"07:11:36",1
"21/08/14","07:30",0.0,24.7,96.8,999.3,354.4,0.7,1.4,345.2,0.03,24.2,24.6,"07:21:52",1
"21/08/14","07:40",0.0,24.9,96.7,999.6,2.8,0.6,1.3,350.8,0.03,24.4,24.7,"07:30:48",1
"21/08/14","07:50",0.0,25.1,96.7,999.3,96.8,0.3,1.0,136.3,0.03,24.6,24.8,"07:47:36",1
"21/08/14","08:00",0.0,25.2,96.6,999.3,134.8,0.5,1.4,128.4,0.03,24.7,24.7,"07:52:00",1
"21/08/14","08:10",0.2,25.2,96.6,999.8,110.2,0.2,0.9,71.6,0.03,24.7,24.9,"08:04:40",1
"21/08/14","08:20",0.0,25.3,96.6,999.6,92.3,0.3,1.3,111.1,0.03,24.8,24.7,"08:19:44",1
"21/08/14","08:30",0.0,25.3,96.5,999.8,153.6,0.5,1.3,8.0,0.03,24.7,24.9,"08:27:28",1
"21/08/14","08:40",0.0,25.4,96.5,999.6,103.0,0.3,1.1,136.5,0.03,24.8,24.8,"08:30:16",1
"21/08/14","08:50",0.0,25.4,96.6,999.3,49.1,0.5,1.1,77.1,0.03,24.9,24.8,"08:44:08",1
"21/08/14","09:00",0.0,25.5,96.5,999.1,116.4,0.3,1.2,135.5,0.03,24.9,24.8,"08:52:00",1
"21/08/14","09:10",0.0,25.6,96.5,999.8,125.1,0.5,1.4,26.4,0.04,25.0,24.7,"09:02:48",1
"21/08/14","09:20",0.0,25.7,96.5,999.6,96.7,0.3,1.1,132.7,0.04,25.1,24.8,"09:10:16",1
"21/08/14","09:30",0.0,25.7,96.5,999.1,328.5,0.2,0.6,349.5,0.04,25.1,24.9,"09:20:08",1
"21/08/14","09:40",0.6,25.7,96.5,999.1,118.6,0.5,1.7,133.7,0.01,25.1,25.0,"09:39:44",1
"21/08/14","09:50",1.0,25.4,96.5,999.1,214.9,0.6,1.9,149.4,0.00,24.8,24.6,"09:40:56",1
"21/08/14","10:00",4.0,25.3,96.6,999.8,169.0,1.0,2.1,209.6,0.00,24.8,24.9,"09:53:20",1
"21/08/14","10:10",2.4,25.4,96.6,999.8,221.9,0.8,1.7,191.0,0.01,24.9,25.0,"10:01:44",1
"21/08/14","10:20",4.4,25.3,96.6,999.6,262.3,0.8,3.2,342.3,0.01,24.8,25.0,"10:13:12",1
"21/08/14","10:30",2.0,25.3,96.6,999.6,321.6,1.0,2.4,349.1,0.02,24.8,24.8,"10:24:00",1
"21/08/14","10:40",0.2,25.5,96.6,999.6,238.9,0.7,1.7,352.6,0.03,25.0,25.1,"10:31:12",1
"21/08/14","10:50",0.2,25.6,96.6,999.6,256.2,1.2,4.4,239.8,0.02,25.1,25.1,"10:41:28",1
"21/08/14","11:00",1.6,25.7,96.6,999.3,339.5,0.7,1.8,5.4,0.06,25.2,25.0,"10:55:04",1
"21/08/14","11:10",0.2,25.8,96.4,999.3,215.4,1.5,4.5,209.1,0.12,25.2,24.8,"11:04:24",1
"21/08/14","11:20",0.2,25.6,96.0,999.1,205.2,2.3,4.7,217.8,0.06,25.0,25.0,"11:15:36",1
"21/08/14","11:30",1.2,24.3,96.2,999.8,261.8,2.0,4.3,215.3,0.00,23.7,25.1,"11:20:08",1
"21/08/14","11:40",1.0,24.0,96.5,1000.3,300.2,1.6,3.5,353.6,0.02,23.4,25.1,"11:36:40",1
"21/08/14","11:50",0.6,24.1,96.5,1000.0,259.3,1.1,3.1,242.8,0.03,23.5,24.9,"11:42:28",1
"21/08/14","12:00",0.4,24.3,96.5,1000.0,304.2,0.8,1.4,349.3,0.05,23.7,24.9,"11:50:16",1
"21/08/14","12:10",0.4,24.4,96.5,999.8,325.7,1.1,2.5,350.8,0.08,23.8,25.0,"12:03:30",1
"21/08/14","12:20",0.2,24.4,96.4,999.6,310.4,1.1,2.0,341.5,0.10,23.8,25.1,"12:14:24",1
"21/08/14","12:30",0.2,24.2,96.5,999.6,323.9,1.6,3.9,343.2,0.11,23.6,25.0,"12:24:08",1
"21/08/14","12:40",0.0,24.4,96.4,999.3,315.5,1.1,2.6,349.2,0.14,23.8,25.0,"12:35:20",1
"21/08/14","12:50",0.2,24.8,96.2,999.6,260.0,0.6,1.4,241.6,0.14,24.2,25.2,"12:40:48",1
"21/08/14","13:00",0.0,24.8,96.1,999.3,351.7,0.6,1.4,339.3,0.12,24.2,25.1,"12:54:48",1
"21/08/14","13:10",0.6,24.6,96.1,999.6,344.3,0.7,1.6,332.5,0.04,24.0,25.0,"13:06:24",1
"21/08/14","13:20",0.4,24.6,96.0,999.3,204.7,0.3,0.8,332.7,0.02,24.0,25.2,"13:10:40",1
"21/08/14","13:30",3.4,24.3,95.9,999.3,178.1,0.8,2.1,144.1,0.01,23.6,25.0,"13:26:32",1
"21/08/14","13:40",6.2,24.1,96.0,999.6,270.7,0.7,1.7,342.5,0.00,23.5,25.1,"13:35:14",1
"21/08/14","13:50",0.6,23.9,96.0,999.6,294.6,0.6,1.6,239.4,0.01,23.3,25.2,"13:41:46",1
"21/08/14","14:00",0.2,24.2,96.0,999.1,120.2,0.5,1.2,119.2,0.02,23.6,25.2,"13:56:32",1
"21/08/14","14:10",0.2,24.2,96.0,999.1,355.2,0.8,2.1,342.6,0.01,23.6,25.2,"14:08:52",1
"21/08/14","14:20",0.6,24.0,96.0,999.3,308.0,1.1,2.0,329.2,0.02,23.4,25.2,"14:12:32",1
"21/08/14","14:30",0.0,24.1,96.2,999.1,323.5,1.1,2.2,348.3,0.08,23.5,25.2,"14:21:20",1
"21/08/14","14:40",0.0,24.5,96.1,999.1,335.3,0.7,1.7,341.5,0.09,23.9,25.2,"14:30:08",1
"21/08/14","14:50",0.0,24.6,96.0,999.1,338.4,1.0,2.8,343.4,0.04,24.0,25.1,"14:48:56",1
"21/08/14","15:00",0.0,24.9,96.0,999.1,265.9,0.7,1.3,186.5,0.05,24.3,25.4,"14:51:44",1
"21/08/14","15:10",0.0,25.4,96.0,998.9,83.6,0.6,1.6,173.4,0.10,24.8,25.3,"15:03:28",1
"21/08/14","15:20",0.2,25.9,95.6,998.9,185.6,0.7,2.8,222.5,0.07,25.2,25.2,"15:17:52",1
"21/08/14","15:30",0.0,26.2,95.4,998.9,214.7,1.2,2.8,211.5,0.05,25.4,25.1,"15:23:52",1
"21/08/14","15:40",0.0,26.1,94.9,998.9,197.4,2.1,4.5,223.7,0.05,25.3,25.3,"15:32:48",1
"21/08/14","15:50",0.0,26.4,94.6,999.3,200.8,1.0,3.1,236.5,0.04,25.5,25.2,"15:41:52",1
"21/08/14","16:00",0.0,26.3,94.3,999.1,190.7,1.2,3.1,237.7,0.04,25.3,25.2,"15:59:36",1
"21/08/14","16:10",0.2,26.4,94.4,999.3,228.2,1.2,2.8,235.6,0.03,25.5,25.2,"16:00:08",1
"21/08/14","16:20",0.0,26.4,94.1,999.3,196.2,1.1,2.4,186.2,0.04,25.4,25.2,"16:16:16",1
"21/08/14","16:30",0.0,26.5,93.9,999.3,169.9,1.0,2.0,130.2,0.04,25.5,25.2,"16:20:08",1
"21/08/14","16:40",0.0,26.6,93.3,999.3,197.1,1.1,2.8,194.7,0.04,25.5,25.3,"16:32:32",1
"21/08/14","16:50",0.2,26.5,93.3,999.3,193.4,1.0,3.2,259.5,0.02,25.4,25.4,"16:45:12",1
"21/08/14","17:00",0.2,26.4,93.0,999.3,198.2,1.6,3.7,225.7,0.01,25.2,25.5,"16:56:48",1
"21/08/14","17:10",0.2,26.4,92.7,999.3,215.1,1.0,2.7,228.8,0.01,25.2,25.3,"17:03:12",1
"21/08/14","17:20",0.2,26.4,92.5,999.3,216.6,1.5,3.4,239.0,0.01,25.1,25.3,"17:14:24",1
"21/08/14","17:30",0.0,26.4,92.2,999.8,191.0,1.2,4.5,217.6,0.00,25.1,25.5,"17:29:52",1
"21/08/14","17:40",0.2,26.3,92.1,999.6,243.5,1.3,4.0,321.1,0.00,25.0,25.4,"17:39:12",1
"21/08/14","17:50",0.0,26.4,92.0,999.3,240.6,1.1,2.9,234.5,0.00,25.0,25.5,"17:46:08",1
"21/08/14","18:00",0.2,26.4,91.9,1000.0,278.5,0.7,1.9,240.7,0.00,25.0,25.5,"17:58:32",1
"21/08/14","18:10",0.0,26.2,91.9,999.6,303.0,1.1,3.6,334.3,0.00,24.8,25.5,"18:02:40",1
"21/08/14","18:20",0.2,26.0,92.0,999.8,301.1,1.0,2.8,322.5,0.00,24.6,25.3,"18:16:32",1
"21/08/14","18:30",0.2,25.5,92.2,1000.3,327.9,1.8,3.5,338.5,0.00,24.2,25.4,"18:24:48",1
"21/08/14","18:40",0.0,25.1,92.2,1000.0,283.8,1.0,2.5,229.3,0.00,23.8,25.5,"18:35:52",1
"21/08/14","18:50",0.2,24.7,92.4,1000.3,272.6,1.0,2.1,236.9,0.00,23.4,25.4,"18:44:00",1
"21/08/14","19:00",0.2,24.2,92.6,1000.5,292.4,1.2,3.1,337.1,0.00,23.0,25.5,"18:57:52",1
"21/08/14","19:10",0.2,23.9,92.8,1000.5,315.5,1.5,2.7,337.6,0.00,22.7,25.4,"19:01:12",1
"21/08/14","19:20",0.2,23.7,92.8,1000.5,312.5,1.2,3.6,328.8,0.00,22.5,25.5,"19:11:12",1
"21/08/14","19:30",0.4,23.3,93.0,1000.8,326.7,1.7,3.9,341.2,0.00,22.1,25.5,"19:23:44",1
"21/08/14","19:40",0.4,23.0,93.2,1000.8,322.8,1.7,3.1,349.2,0.00,21.9,25.2,"19:31:28",1
"21/08/14","19:50",0.0,22.7,93.4,1001.2,297.7,1.2,2.1,238.8,0.00,21.6,25.4,"19:46:24",1
"21/08/14","20:00",0.0,22.6,93.5,1001.5,321.8,1.1,2.2,323.8,0.00,21.5,25.3,"19:55:44",1
"21/08/14","20:10",0.0,22.6,93.7,1001.5,310.6,1.0,1.9,336.4,0.00,21.6,25.3,"20:01:12",1
"21/08/14","20:20",0.2,22.5,93.8,1001.7,326.6,1.3,2.5,325.3,0.00,21.5,25.5,"20:14:40",1
"21/08/14","20:30",0.0,22.4,94.0,1001.7,329.6,1.0,1.9,311.2,0.00,21.4,25.3,"20:23:52",1
"21/08/14","20:40",0.0,22.3,94.1,1001.7,329.3,0.8,2.5,313.9,0.00,21.3,25.4,"20:31:44",1
"21/08/14","20:50",0.2,22.3,94.1,1002.2,312.6,0.6,1.2,324.6,0.00,21.3,25.2,"20:40:32",1
"21/08/14","21:00",0.0,22.2,94.2,1002.2,327.0,0.7,2.0,327.1,0.00,21.3,25.4,"20:58:48",1
"21/08/14","21:10",0.2,22.1,94.3,1001.9,322.3,1.3,3.1,332.9,0.00,21.2,25.2,"21:07:04",1
"21/08/14","21:20",0.2,22.0,94.4,1002.4,320.8,1.2,2.4,315.1,0.00,21.1,25.4,"21:13:28",1
"21/08/14","21:30",0.0,21.9,94.6,1001.7,330.7,1.5,2.8,341.1,0.00,21.0,25.3,"21:26:32",1
"21/08/14","21:40",0.0,21.9,94.6,1002.2,314.3,0.7,1.9,340.7,0.00,21.0,25.3,"21:32:32",1
"21/08/14","21:50",0.2,21.9,94.7,1002.2,302.9,0.5,1.4,310.0,0.00,21.1,25.2,"21:42:00",1
"21/08/14","22:00",0.2,21.9,94.8,1001.9,337.7,1.0,2.9,341.6,0.00,21.1,25.1,"21:54:32",1
"21/08/14","22:10",0.4,21.9,94.8,1002.2,325.7,1.1,2.2,343.3,0.00,21.1,25.3,"22:02:00",1
"21/08/14","22:20",0.2,21.8,94.9,1002.2,326.9,1.1,2.0,337.7,0.00,21.0,25.1,"22:10:24",1
"21/08/14","22:30",3.0,21.7,95.0,1001.9,289.7,0.7,1.4,239.4,0.00,20.9,25.0,"22:23:12",1
"21/08/14","22:40",0.6,21.6,95.0,1001.9,310.9,0.7,1.6,335.0,0.00,20.8,25.3,"22:33:52",1
"21/08/14","22:50",0.6,21.7,95.2,1001.9,320.0,0.6,1.1,336.1,0.00,20.9,24.9,"22:46:16",1
"21/08/14","23:00",1.0,21.6,95.2,1001.9,313.5,0.8,1.9,325.9,0.00,20.8,25.0,"22:54:32",1
"21/08/14","23:10",0.8,21.6,95.3,1002.2,300.2,0.5,1.2,338.7,0.00,20.9,25.1,"23:09:28",1
"21/08/14","23:20",1.2,21.5,95.4,1001.7,317.3,0.7,1.6,337.8,0.00,20.8,25.0,"23:14:32",1
"21/08/14","23:30",0.6,21.5,95.4,1001.5,243.0,0.5,1.1,259.7,0.00,20.8,25.0,"23:25:44",1
"21/08/14","23:40",2.4,21.6,95.4,1001.2,300.6,1.0,2.0,349.2,0.00,20.9,24.9,"23:38:10",1
"21/08/14","23:50",1.4,21.6,95.6,1001.0,265.6,1.1,2.1,237.4,0.00,20.9,24.7,"23:47:12",1
"21/08/14","24:00",0.2,21.7,95.6,1000.8,293.4,0.7,1.7,337.9,0.00,21.0,25.0,"23:53:44",1
